Regional Weather Roundup
Issued by NWS Green Bay, WI

Home | Current Version | Previous Version | Graphics & Text | Print | Product List | Glossary Off
Versions: 1 2 3 4 5 6 7 8 9 10 11 12 13 14 15 16 17 18 19 20 21 22 23 24 25 26 27 28 29 30 31 32 33 34 35 36 37 38 39 40 41 42 43 44 45 46 47 48 49 50

000
ASUS43 KGRB 251500
RWRGRB

NORTH-CENTRAL AND NORTHEAST WISCONSIN REGIONAL WEATHER ROUNDUP
NATIONAL WEATHER SERVICE GREEN BAY WI
1000 AM CDT SAT MAR 25 2017

WIZ005-009-010>012-018-019-251600-
NORTH CENTRAL WISCONSIN

CITY           SKY/WX    TMP DP  RH WIND       PRES   REMARKS
IRONWOOD       CLOUDY    33  29  85 E10       30.28R
MANITOWISH WTR NOT AVBL
ARBOR VITAE    NOT AVBL
EAGLE RIVER    NOT AVBL
LAND O LAKES   NOT AVBL
RHINELANDER    CLOUDY    34  30  85 E14       30.24R
PHILLIPS       NOT AVBL
ANTIGO         NOT AVBL
TOMAHAWK       NOT AVBL
MERRILL        NOT AVBL
$$

WIZ013-073-251600-
NORTHEAST WISCONSIN

CITY           SKY/WX    TMP DP  RH WIND       PRES   REMARKS
IRON MOUNTAIN  CLOUDY    34  29  82 E5        30.28R
MARINETTE        N/A    N/A N/A N/A MISG        N/A
$$

WIZ017-030-035>037-045-251600-
CENTRAL WISCONSIN

CITY           SKY/WX    TMP DP  RH WIND       PRES   REMARKS
MEDFORD        NOT AVBL
WAUSAU         CLOUDY    35  31  85 E14G22    30.20S
MOSINEE        CLOUDY    34  34 100 NE17G32   30.20F
MARSHFIELD     CLOUDY    35  31  85 E15G23    30.18R
WISC RAPIDS    CLOUDY    37  34  89 E17G25    30.19R
STEVENS POINT  NOT AVBL
WAUPACA        NOT AVBL
SHAWANO        NOT AVBL
CLINTONVILLE   NOT AVBL
WAUTOMA        CLOUDY    36  34  92 NE16G28   30.18F
$$

WIZ038-039-048-051-251600-
FOX VALLEY

CITY           SKY/WX    TMP DP  RH WIND       PRES   REMARKS
NWS GREEN BAY  CLOUDY    37  36  96 NE16      30.24R
APPLETON       CLOUDY    36  36 100 NE16G23   30.19S FOG
OSHKOSH        CLOUDY    37  34  89 NE15G23   30.17F
FOND DU LAC    CLOUDY    38  33  82 E16G24    30.17F
$$

WIZ022-050-052-251600-
EAST CENTRAL WISCONSIN

CITY           SKY/WX    TMP DP  RH WIND       PRES   REMARKS
EPHRAIM        NOT AVBL
WASHINGTON ISL NOT AVBL
STURGEON BAY   CLOUDY    36  32  85 NE14G22   30.27S
MANITOWOC      NOT AVBL
SHEBOYGAN      CLOUDY    37  34  89 NE20      30.18F
$$

LMZ563-521-522-541>543-251600-
LAKESHORE

STATION/POSITION TIME  TEMP    WIND        PRES    VSBY  WAVE
                       AIR SEA DIR/SP/G                  HT/PER
                 (UTC) (F)     (DEG/KT/KT) (MB)    (MI)  (FT/S)
SHEBOYGAN LKSHOR 1400   36      40/ 18/ 20 1023.0R
KEWAUNEE LKSHORE 1430   37      60/ 13/ 18 1023.4R
NORTHPORT PIER   1440   35      70/ 15/ 19 1026.1R
SISTER BAY LKSHO 1350   36     100/ 13/ 22   N/A
CHAMBERS ISLAND  1440   35      50/ 12/ 17 1025.4R
MENOMINEE LKSHOR 1430   33      40/ 14/ 16 1024.8R
$$



USA.gov is the U.S. government's official web portal to all federal, state and local government web resources and services.